GIA812 WIII-YSSY

Flight info

Callsign GIA812
Flight time N/A
Altitude 33000
Route IMABA A585 SAPDA G222 BRM/N0495F350 T11 AS A576 APOMA Y52 VELGI Y105 TARAL Y59 RIVET
Aircraft B77W/H-SDE1E2E3FGHIJ2J3J4J5M1RWXY/LB1D1

Departure

Time N/A
Airport Soekarno-Hatta International Airport (WIII)

Arrival

Time 2026-04-25 20:59
Airport Sydney Kingsford Smith International Airport (YSSY)
Time Latitude Longitude Altitude Speed Heading
2026-04-25 20:35 -34.33719 149.20900 35088 ft 495 kts 133°
2026-04-25 20:35 -34.36002 149.23964 34155 ft 498 kts 133°
2026-04-25 20:35 -34.38336 149.27101 33233 ft 500 kts 132°
2026-04-25 20:36 -34.40464 149.30461 32374 ft 502 kts 123°
2026-04-25 20:36 -34.42126 149.34122 31527 ft 502 kts 114°
2026-04-25 20:36 -34.43320 149.38103 30759 ft 500 kts 104°
2026-04-25 20:36 -34.44008 149.42168 30313 ft 492 kts 99°
2026-04-25 20:37 -34.44539 149.46236 29819 ft 486 kts 98°
2026-04-25 20:37 -34.45040 149.50224 29278 ft 481 kts 98°
2026-04-25 20:37 -34.45535 149.54221 28733 ft 476 kts 98°
2026-04-25 20:37 -34.46017 149.58165 28195 ft 471 kts 98°
2026-04-25 20:38 -34.46485 149.62030 27672 ft 466 kts 98°
2026-04-25 20:38 -34.46954 149.65932 27129 ft 461 kts 97°
2026-04-25 20:38 -34.47407 149.69727 26590 ft 457 kts 97°
2026-04-25 20:38 -34.47860 149.73543 26043 ft 452 kts 97°
2026-04-25 20:39 -34.48302 149.77280 25506 ft 448 kts 97°
2026-04-25 20:39 -34.48738 149.80980 24965 ft 444 kts 97°
2026-04-25 20:39 -34.49173 149.84691 24430 ft 439 kts 97°
2026-04-25 20:39 -34.49440 149.87122 24064 ft 437 kts 94°
2026-04-25 20:40 -34.49382 149.91988 23347 ft 430 kts 81°
2026-04-25 20:40 -34.48755 149.95489 22823 ft 425 kts 72°
2026-04-25 20:40 -34.47659 149.98805 22293 ft 420 kts 63°
2026-04-25 20:40 -34.46323 150.01938 21764 ft 417 kts 62°
2026-04-25 20:41 -34.44978 150.05017 21231 ft 414 kts 62°
2026-04-25 20:41 -34.43629 150.08087 20705 ft 411 kts 62°
2026-04-25 20:41 -34.42294 150.11114 20180 ft 408 kts 62°
2026-04-25 20:41 -34.40966 150.14117 19646 ft 405 kts 61°
2026-04-25 20:42 -34.39646 150.17094 19117 ft 402 kts 61°
2026-04-25 20:42 -34.38322 150.20077 18587 ft 400 kts 61°
2026-04-25 20:42 -34.37004 150.23039 18052 ft 397 kts 61°
2026-04-25 20:42 -34.35701 150.25967 17541 ft 394 kts 61°
2026-04-25 20:43 -34.34419 150.28842 17019 ft 392 kts 62°
2026-04-25 20:43 -34.33126 150.31737 16494 ft 390 kts 62°
2026-04-25 20:43 -34.31846 150.34605 15968 ft 388 kts 62°
2026-04-25 20:43 -34.30565 150.37470 15435 ft 385 kts 62°
2026-04-25 20:44 -34.29296 150.40305 14939 ft 383 kts 62°
2026-04-25 20:44 -34.28029 150.43132 14260 ft 385 kts 62°
2026-04-25 20:44 -34.26771 150.45944 13583 ft 387 kts 62°
2026-04-25 20:44 -34.25486 150.48820 13007 ft 385 kts 62°
2026-04-25 20:45 -34.24229 150.51633 12477 ft 382 kts 62°
2026-04-25 20:45 -34.22967 150.54454 11942 ft 380 kts 62°
2026-04-25 20:45 -34.21710 150.57259 11409 ft 377 kts 61°
2026-04-25 20:45 -34.20473 150.60019 10903 ft 373 kts 61°
2026-04-25 20:46 -34.19268 150.62703 10707 ft 357 kts 61°
2026-04-25 20:46 -34.18107 150.65289 10633 ft 343 kts 60°
2026-04-25 20:46 -34.16993 150.67767 10514 ft 330 kts 60°
2026-04-25 20:46 -34.15908 150.70181 10389 ft 315 kts 60°
2026-04-25 20:47 -34.14889 150.72443 10268 ft 304 kts 60°
2026-04-25 20:47 -34.13900 150.74640 10141 ft 294 kts 60°
2026-04-25 20:47 -34.12931 150.76790 10016 ft 284 kts 60°
2026-04-25 20:47 -34.11997 150.78860 9735 ft 281 kts 60°
2026-04-25 20:48 -34.11063 150.80928 9344 ft 282 kts 60°
2026-04-25 20:48 -34.10123 150.83008 8966 ft 282 kts 60°
2026-04-25 20:48 -34.09201 150.85057 8750 ft 276 kts 60°
2026-04-25 20:48 -34.08292 150.87080 8614 ft 270 kts 60°
2026-04-25 20:49 -34.07400 150.89062 8464 ft 268 kts 60°
2026-04-25 20:49 -34.06505 150.91048 8287 ft 267 kts 60°
2026-04-25 20:49 -34.05617 150.93018 8108 ft 266 kts 60°
2026-04-25 20:49 -34.04739 150.94965 7948 ft 265 kts 60°
2026-04-25 20:50 -34.03852 150.96930 7789 ft 265 kts 61°
2026-04-25 20:50 -34.03245 150.99008 7612 ft 265 kts 84°
2026-04-25 20:50 -34.03470 151.01216 7426 ft 267 kts 111°
2026-04-25 20:50 -34.04448 151.03108 7268 ft 269 kts 128°
2026-04-25 20:51 -34.07358 151.06993 6888 ft 269 kts 139°
2026-04-25 20:51 -34.09012 151.08025 6698 ft 269 kts 164°
2026-04-25 20:51 -34.10853 151.08519 6543 ft 271 kts 167°
2026-04-25 20:51 -34.12693 151.08963 6375 ft 270 kts 167°
2026-04-25 20:52 -34.14547 151.09428 6196 ft 269 kts 167°
2026-04-25 20:52 -34.15765 151.09741 6074 ft 268 kts 167°
2026-04-25 20:52 -34.18176 151.10365 5859 ft 266 kts 167°
2026-04-25 20:52 -34.19994 151.10840 5695 ft 266 kts 166°
2026-04-25 20:53 -34.21652 151.11754 5630 ft 264 kts 139°
2026-04-25 20:53 -34.22793 151.13475 5491 ft 261 kts 111°
2026-04-25 20:53 -34.23170 151.15616 5171 ft 264 kts 86°
2026-04-25 20:53 -34.22707 151.17738 4721 ft 263 kts 59°
2026-04-25 20:54 -34.21510 151.19330 4432 ft 256 kts 34°
2026-04-25 20:54 -34.20049 151.20503 4381 ft 244 kts 32°
2026-04-25 20:54 -34.18658 151.21588 4274 ft 235 kts 32°
2026-04-25 20:54 -34.17274 151.22609 4056 ft 230 kts 24°
2026-04-25 20:55 -34.15737 151.22954 3755 ft 228 kts 355°
2026-04-25 20:55 -34.14180 151.22664 3485 ft 225 kts 350°
2026-04-25 20:55 -34.12657 151.22279 3203 ft 223 kts 349°
2026-04-25 20:55 -34.11130 151.21880 2920 ft 221 kts 348°
2026-04-25 20:56 -34.09618 151.21480 2635 ft 219 kts 349°
2026-04-25 20:56 -34.08158 151.21097 2358 ft 211 kts 349°
2026-04-25 20:56 -34.06762 151.20732 2087 ft 195 kts 349°
2026-04-25 20:56 -34.05475 151.20398 1847 ft 182 kts 349°
2026-04-25 20:57 -34.04275 151.20088 1618 ft 170 kts 349°
2026-04-25 20:57 -34.03155 151.19800 1412 ft 161 kts 349°
2026-04-25 20:57 -34.02082 151.19521 1199 ft 152 kts 349°
2026-04-25 20:57 -34.01068 151.19260 997 ft 148 kts 349°
2026-04-25 20:58 -34.00059 151.18999 794 ft 147 kts 348°
2026-04-25 20:58 -33.99057 151.18739 593 ft 146 kts 348°
2026-04-25 20:58 -33.98049 151.18481 383 ft 149 kts 348°
2026-04-25 20:58 -33.97039 151.18230 189 ft 147 kts 347°
2026-04-25 20:59 -33.96024 151.17961 48 ft 142 kts 347°
2026-04-25 20:59 -33.95190 151.17738 35 ft 105 kts 348°
2026-04-25 20:59 -33.94590 151.17589 35 ft 69 kts 348°
2026-04-25 20:59 -33.94234 151.17494 35 ft 37 kts 347°
2026-04-25 21:00 -33.94029 151.17442 35 ft 17 kts 346°
2026-04-25 21:00 -33.93953 151.17413 35 ft 15 kts 323°
2026-04-25 21:00 -33.93984 151.17171 35 ft 12 kts 253°
2026-04-25 21:01 -33.94007 151.17073 35 ft 11 kts 255°
2026-04-25 21:01 -33.94028 151.16983 35 ft 10 kts 255°
2026-04-25 21:01 -33.94046 151.16898 35 ft 10 kts 255°
2026-04-25 21:01 -33.94065 151.16818 35 ft 9 kts 254°
2026-04-25 21:02 -33.94085 151.16744 35 ft 9 kts 253°
2026-04-25 21:02 -33.94101 151.16673 35 ft 8 kts 254°
2026-04-25 21:02 -33.94115 151.16614 35 ft 5 kts 255°
2026-04-25 21:02 -33.94123 151.16577 35 ft 3 kts 254°
2026-04-25 21:03 -33.94133 151.16538 35 ft 5 kts 255°
2026-04-25 21:03 -33.94124 151.16489 35 ft 9 kts 316°
2026-04-25 21:03 -33.94069 151.16472 35 ft 5 kts 347°
2026-04-25 21:03 -33.94047 151.16466 35 ft 0 kts 345°